Location: Bellerive
(46.9237°N, 7.0223°E)
Time: 07:47:45
(UTC+00:00)

Daily predictions for brighter satellites

Satellite Brightness Start Highest point End
(mag) Time Altitude Azimuth Time Altitude Azimuth Time Altitude Azimuth
Meteor 1-16 Rocket 4.2 18:32:51 10° S 18:38:10 59° E 18:43:41 10° NNE
APEX 4.4 18:31:53 10° NNW 18:38:25 63° ENE 18:43:41 10° SE
Cosmos 614 Rocket 4.2 18:33:26 10° S 18:38:25 47° ESE 18:43:24 10° NNE
YAOGAN 1 4.1 18:34:30 10° S 18:38:36 41° W 18:42:43 10° NNW
CZ-2C R/B 3.1 18:34:21 10° SE 18:39:01 50° ENE 18:43:36 10° N
STARLINK-29 3.6 18:39:39 10° SSW 18:42:36 36° SE 18:45:35 10° ENE
Aureole 1 Rocket 4.2 18:38:22 10° S 18:45:32 53° ESE 18:51:10 10° NNE
SJ-6B 3.4 18:41:39 10° SE 18:45:32 41° ENE 18:49:25 10° N
IRIDIUM 104 4.3 18:40:41 10° N 18:45:57 79° E 18:51:10 10° S
Cosmos 1300 4.4 18:44:52 10° ESE 18:47:03 15° E 18:49:14 10° NE
BREEZE-M DEB (TANK) 3.9 18:39:42 10° WNW 18:47:41 81° NNE 18:50:41 10° ESE
STARLINK-60 2.9 18:46:51 10° WSW 18:50:08 86° SE 18:53:26 10° ENE
Cosmos 2369 Rocket 3.6 18:45:17 10° NW 18:50:33 40° WSW 18:55:45 10° S
ARGOS Delta rocket 4.3 18:46:33 10° S 18:51:55 83° W 18:57:27 10° NNW
IRIDIUM 114 4.4 18:49:51 10° N 18:55:06 87° W 19:00:19 10° S
STARLINK-1237 4.5 18:51:47 10° WNW 18:55:45 42° NNE 18:59:42 10° E
Cosmos 2058 Rocket 3.6 18:55:04 10° SSE 18:59:17 40° E 19:03:29 10° NNE
STARLINK-1202 4.4 18:56:47 10° WNW 19:00:46 43° NNE 19:04:42 10° E
Cosmos 1726 Rocket 3.6 18:57:31 10° S 19:01:53 65° E 19:06:19 10° NNE
SL-08 RB Rocket 3.9 18:58:04 10° SSE 19:02:31 55° ENE 19:07:03 10° N
STARLINK-1228 2.7 19:00:12 10° WNW 19:03:09 82° NNE 19:05:31 15° ESE
Cosmos 1461 3.1 18:58:40 10° NW 19:03:14 82° NE 19:07:54 10° SE
Cosmos 921 Rocket 3.2 19:01:39 10° N 19:05:43 48° ENE 19:09:43 10° SE
Cosmos 1703 3.3 19:02:11 10° N 19:06:11 88° W 19:10:09 10° S
Cosmos 1726 3.1 19:02:57 10° SSW 19:06:36 53° WNW 19:10:16 10° N
SL-4 R/B 2.1 19:03:17 10° W 19:06:39 58° NNW 19:10:04 10° ENE
Meteor 2-17 Rocket 4.5 19:00:40 10° N 19:06:50 70° ENE 19:12:58 10° SSE
Cosmos 2341 Rocket 4.5 19:00:47 10° N 19:06:50 42° ENE 19:12:51 10° SE
Cosmos 1437 4.5 19:05:37 10° NNW 19:08:22 32° W 19:11:07 10° SSW
Cosmos 2184 Rocket 4.2 19:02:24 10° NNW 19:08:41 76° W 19:14:52 10° S
ADEOS Rocket 4.5 19:03:05 10° N 19:08:58 42° WNW 19:14:21 10° SW
CZ-4C R/B 4.3 19:03:58 10° NNW 19:09:10 24° NNE 19:15:03 10° ENE
Cosmos 1825 Rocket 4.1 19:05:10 10° NNW 19:09:31 63° W 19:13:48 10° S
Cosmos 407 Rocket 3.4 19:04:53 10° SSW 19:10:00 73° ESE 19:15:08 10° NNE
Cosmos 1908 3.1 19:06:27 10° S 19:10:19 82° E 19:14:14 10° N
STARLINK-1246 4.3 19:06:45 10° WNW 19:10:46 46° NNE 19:14:15 13° E
Cosmos 1340 Rocket 2.9 19:06:51 10° S 19:10:47 53° E 19:14:42 10° NNE
FREGAT/IRIS 2.7 19:08:37 10° S 19:11:20 66° W 19:14:03 10° NNW
STARLINK-1201 3.1 19:08:57 10° WNW 19:12:13 66° NNE 19:14:33 17° ESE
Cosmos 1656 Rocket 4.4 19:06:57 10° NW 19:12:28 54° WSW 19:17:51 10° S
Cosmos 2228 3.1 19:08:29 10° S 19:12:47 82° W 19:17:10 10° N
Cosmos 1328 4.0 19:08:52 10° NNW 19:12:53 78° W 19:16:53 10° S
Cosmos 676 Rocket 4.4 19:08:46 10° S 19:13:41 41° ESE 19:18:36 10° NE
STARLINK-1224 4.2 19:11:45 10° WNW 19:15:47 48° NNE 19:19:04 15° E
Cosmos 1943 4.3 19:11:38 10° SW 19:17:07 49° WNW 19:22:40 10° NNE
STARLINK-1203 4.2 19:13:53 10° WNW 19:18:01 52° NNE 19:21:13 16° E
MOS 1 4.4 19:12:55 10° SSE 19:18:35 79° WSW 19:24:17 10° NNW
MetOp-A 4.2 19:14:11 10° SSE 19:19:27 61° ENE 19:24:44 10° N
Cosmos 2058 4.4 19:16:32 10° NNE 19:19:37 20° ENE 19:21:10 17° E
STARLINK-1225 4.2 19:16:45 10° WNW 19:20:48 50° NNE 19:23:51 16° E
Resurs 01 Rocket 2.3 19:17:43 15° SE 19:20:53 36° ENE 19:24:57 10° N
MOS 1 Rocket 4.0 19:17:41 10° NNE 19:22:51 43° E 19:28:00 10° SSE
STARLINK-52 2.8 19:19:43 10° SW 19:22:54 70° SSE 19:25:57 11° ENE
CZ-2C R/B 3.0 19:19:18 10° NNE 19:24:10 40° E 19:29:02 10° SSE
Nadezhda 1 Rocket 4.1 19:18:42 10° S 19:25:06 90° WNW 19:31:28 10° N
BREEZE M DEB (TANK) 3.3 19:22:49 10° SSW 19:25:42 35° SE 19:32:28 10° ENE
STARLINK-1230 4.1 19:21:43 10° WNW 19:25:47 52° NNE 19:28:37 18° E
Cosmos 962 Rocket 4.5 19:21:42 10° N 19:27:49 64° ENE 19:33:52 10° SSE
SPOT 3 Rocket 3.5 19:23:19 10° SSE 19:28:32 77° ENE 19:33:44 10° NNW
Cosmos 1023 Rocket 4.4 19:23:47 10° SSW 19:28:56 80° ESE 19:34:06 10° NNE
Cosmos 1697 Rocket 4.4 19:25:22 10° N 19:29:27 20° NE 19:32:44 13° E
SL-24 R/B - RUBIN 2 4.4 19:23:53 10° SW 19:29:32 83° NW 19:35:56 10° NE
ARGOS 3.6 19:24:41 10° S 19:30:02 65° WSW 19:35:24 10° NNW
SL-8 Rocket 4.4 19:24:18 10° N 19:30:23 46° ENE 19:35:13 16° SE
STARLINK-1243 4.0 19:26:40 10° WNW 19:30:45 55° NNE 19:33:24 20° E
FALCON 9 DEB 3.0 19:27:45 10° WSW 19:31:14 82° SSE 19:34:33 11° ENE
Cosmos 2154 Rocket 4.2 19:25:21 10° N 19:31:43 79° W 19:38:01 10° S
Cosmos 1953 Rocket 4.4 19:28:12 10° NNW 19:32:35 54° W 19:36:57 10° S
NOSS 3-4 (A) 4.3 19:27:54 10° NW 19:34:49 60° WSW 19:42:24 10° SSE
NOSS 3-4 (C) 4.3 19:28:01 10° NW 19:34:55 61° WSW 19:42:31 10° SSE
Cosmos 1954 Rocket 4.0 19:30:06 10° S 19:35:14 60° ESE 19:40:22 10° NNE
Cosmos 2181 Rocket 4.3 19:29:34 10° SSE 19:35:26 44° E 19:41:14 10° NNE
USA 186 3.5 19:32:38 10° SSW 19:35:38 33° W 19:38:30 10° NNW
STARLINK-1236 3.9 19:31:40 10° WNW 19:35:46 58° NNE 19:38:11 23° E
STARLINK-67 4.1 19:36:20 10° W 19:38:33 25° SW 19:39:24 21° S
Cosmos 2366 rocket 4.3 19:38:37 10° N 19:44:32 46° ENE 19:48:11 22° SE
Cosmos 1076 Rocket 4.1 19:40:54 10° N 19:44:54 37° ENE 19:46:20 28° ESE
STARLINK-1269 3.8 19:41:36 10° WNW 19:45:44 64° NNE 19:47:44 29° E
BREEZE-M DEB (TANK) 4.4 19:41:56 10° SSW 19:45:56 24° SSE 19:45:56 24° SSE
Cosmos 1656 4.4 19:43:27 10° NNW 19:48:45 38° NE 19:51:23 24° ESE
Cosmos 1763 Rocket 4.1 19:44:31 10° N 19:49:23 38° ENE 19:51:29 27° ESE
STARLINK-1200 3.7 19:46:35 10° WNW 19:50:44 68° NNE 19:52:31 32° E
Cosmos 1455 4.2 19:56:32 15° ENE 19:56:32 15° ENE 19:57:47 10° NE
STARLINK-1234 3.8 19:52:12 10° WNW 19:55:08 38° SW 19:55:47 34° S
STARLINK-1209 3.9 19:52:41 10° WNW 19:55:36 36° SW 19:56:15 32° S
STARLINK-1192 3.7 19:51:34 10° WNW 19:55:43 72° NNE 19:57:18 36° ESE
STARLINK-1233 3.3 19:53:00 10° WNW 19:56:04 52° SW 19:56:38 44° S
STARLINK-1212 3.3 19:53:28 10° WNW 19:56:32 51° SW 19:57:04 44° S
STARLINK-1105 3.3 19:53:54 10° WNW 19:56:58 51° SW 19:57:31 44° S
STARLINK-1206 3.3 19:54:23 10° WNW 19:57:25 50° SW 19:57:55 44° S
STARLINK-1247 3.3 19:54:50 10° WNW 19:57:53 49° SW 19:58:22 44° S
STARLINK-1227 3.3 19:55:14 10° WNW 19:58:18 49° SW 19:58:47 44° S
Iridium 4 Rocket 3.5 19:54:30 10° NNE 19:58:26 38° E 19:59:06 36° ESE
STARLINK-1218 3.3 19:55:45 10° WNW 19:58:46 48° SW 19:59:13 44° S
STARLINK-1226 3.3 19:56:11 10° WNW 19:59:13 48° SW 19:59:40 44° S
Cosmos 1980 Rocket 3.9 19:55:41 10° N 19:59:37 19° NE 20:02:02 15° ENE
STARLINK-1254 3.4 19:56:37 10° WNW 19:59:39 48° SW 20:00:06 44° S
USA 234 3.7 19:54:12 10° ENE 20:00:05 34° SE 20:05:56 10° SSW
STARLINK-1215 3.3 19:57:06 10° WNW 20:00:08 47° SW 20:00:32 44° S
STARLINK-1231 3.4 19:57:33 10° WNW 20:00:35 47° SW 20:00:58 44° S
Cosmos 1174 4.2 19:56:35 10° NNW 20:00:43 65° NE 20:02:39 35° ESE
STARLINK-1244 3.6 19:56:38 10° WNW 20:00:47 76° NNE 20:02:10 40° ESE
STARLINK-1232 3.4 19:58:28 10° WNW 20:01:29 46° SW 20:01:50 43° SSW
Cosmos 1892 3.2 19:58:07 10° N 20:01:49 40° ENE 20:02:13 39° E
STARLINK-1217 3.4 19:58:55 10° WNW 20:01:56 45° SW 20:02:16 43° SSW
Abrixas rocket 2.7 19:59:19 10° W 20:02:06 38° SSW 20:02:07 38° SSW
STARLINK-1208 3.4 19:59:20 10° WNW 20:02:21 45° SW 20:02:43 43° SSW
STARLINK-1229 3.4 19:59:49 10° WNW 20:02:49 45° SW 20:03:07 43° SSW
STARLINK-1271 3.4 20:00:16 10° WNW 20:03:16 44° SW 20:03:34 43° SSW
STARLINK-1270 3.5 20:00:44 10° WNW 20:03:43 44° SW 20:04:00 42° SSW
H-2A R/B 4.0 19:59:23 10° SSW 20:03:45 27° W 20:08:04 10° NW
STARLINK-1154 3.5 20:01:11 10° WNW 20:04:10 43° SW 20:04:26 42° SSW
ATLAS 5 CENTAUR R/B 2.6 20:00:56 10° WSW 20:05:00 47° NW 20:09:39 10° NNE
STARLINK-1197 3.5 20:02:05 10° WNW 20:05:05 43° SW 20:05:18 42° SSW
STARLINK-1189 3.5 20:02:32 10° WNW 20:05:30 42° SW 20:05:43 41° SSW
STARLINK-1138 3.6 20:01:32 10° WNW 20:05:41 81° NNE 20:06:52 46° ESE
STARLINK-1198 3.5 20:02:59 10° WNW 20:05:58 42° SW 20:06:10 41° SSW
Cosmos 1825 4.0 20:03:29 10° NNE 20:05:39 19° ENE 20:05:39 19° ENE
STARLINK-1188 3.6 20:03:25 10° WNW 20:06:25 41° SW 20:06:35 41° SSW
ATLAS 2AS CENTAUR R/B 4.0 19:59:58 10° NW 20:06:39 37° WSW 20:12:50 10° S
STARLINK-1235 4.0 20:04:10 10° WNW 20:07:03 33° SW 20:07:18 32° SSW
STARLINK-1187 3.8 20:04:33 10° WNW 20:07:30 36° SW 20:07:42 36° SSW
Cosmos-2242 4.4 20:08:41 24° ENE 20:08:41 24° ENE 20:11:24 10° NNE
STARLINK-1199 3.6 20:05:23 10° WNW 20:08:23 40° SW 20:08:31 40° SSW
STARLINK-1191 3.7 20:05:50 10° WNW 20:08:49 40° SW 20:08:56 40° SSW
STARLINK-1210 3.7 20:06:17 10° WNW 20:09:16 39° SW 20:09:23 39° SSW
STARLINK-1221 3.7 20:06:45 10° WNW 20:09:43 39° SW 20:09:49 39° SSW
COSMOS 2455 3.4 20:04:05 10° NW 20:09:55 54° WSW 20:13:57 20° S
STARLINK-1219 3.7 20:07:13 10° WNW 20:10:10 39° SW 20:10:15 39° SSW
STARLINK-1222 3.7 20:07:38 10° WNW 20:10:37 38° SW 20:10:40 38° SW
STARLINK-1143 3.5 20:06:30 10° WNW 20:10:40 86° NNE 20:11:39 51° ESE
STARLINK-1211 3.8 20:08:07 10° WNW 20:11:05 38° SW 20:11:07 38° SW
STARLINK-1214 3.8 20:08:34 10° WNW 20:11:31 38° SW 20:11:33 38° SW
STARLINK-1245 3.8 20:09:03 10° WNW 20:11:57 37° SW 20:11:57 37° SW
STARLINK-1238 3.8 20:09:28 10° WNW 20:12:24 37° SW 20:12:24 37° SW
STARLINK-1205 3.9 20:10:24 10° WNW 20:13:16 36° SW 20:13:16 36° SW
STARLINK-1204 3.9 20:10:52 10° WNW 20:13:42 36° SW 20:13:42 36° SW
ERBS 2.1 20:10:50 10° NW 20:14:13 83° NE 20:14:20 81° E
STARLINK-1241 3.5 20:11:31 10° WNW 20:15:41 89° SSW 20:16:28 58° ESE
STARLINK-29 4.0 20:15:38 10° W 20:18:44 44° NNW 20:19:44 32° NNE
STARLINK-1239 3.5 20:16:29 10° WNW 20:20:38 84° SSW 20:21:14 64° SE
IGS 5A 3.7 20:20:27 48° E 20:20:42 49° ENE 20:24:43 10° N
SAR-Lupe-2 3.4 20:17:35 10° NNE 20:21:10 79° ESE 20:21:14 78° ESE
ATLAS CENTAUR R/B 2.6 20:18:36 10° NNW 20:21:52 25° NE 20:22:10 24° NE
Cosmos 1300 3.8 20:18:40 10° SSW 20:22:19 44° WNW 20:26:00 10° N
Spot 2 Rocket 3.4 20:22:15 42° SSE 20:24:01 78° ENE 20:29:08 10° NNW
STARLINK-1240 3.5 20:21:28 10° WNW 20:25:37 79° SSW 20:26:01 69° SSE
USA 32 4.3 20:20:33 10° N 20:25:37 48° E 20:26:23 44° ESE
Cosmos 1850 Rocket 3.8 20:24:21 27° S 20:27:10 69° ESE 20:32:20 10° NNE
Cosmos 841 Rocket 3.9 20:23:33 10° NNW 20:28:39 46° ENE 20:29:32 42° E
In-Cosmos 22 Rocket 4.4 20:23:53 10° NNW 20:29:44 75° W 20:32:45 30° S
Terra 2.9 20:29:53 28° ENE 20:29:57 28° ENE 20:34:01 10° N
STARLINK-1216 3.5 20:26:26 10° WNW 20:30:34 73° SSW 20:30:47 71° S
Cosmos 2082 Rocket 4.0 20:34:09 16° ENE 20:34:09 16° ENE 20:35:40 10° NE
SPOT 5 3.4 20:31:40 35° ENE 20:31:40 35° ENE 20:35:24 10° N
Meteor 2-10 Rocket 3.7 20:33:52 49° ESE 20:34:08 49° E 20:39:22 10° NNE
MetOp-B 4.2 20:32:14 36° S 20:34:28 76° WSW 20:39:51 10° NNW
SL-08 R/B 4.4 20:28:26 10° N 20:34:37 74° E 20:36:45 43° SSE
STARLINK-1237 3.6 20:31:24 10° WNW 20:35:32 68° SSW 20:35:33 68° SSW
Cosmos 1833 Rocket 3.5 20:39:02 34° ENE 20:39:02 34° ENE 20:42:57 10° NE
CARTOSAT-1 4.1 20:39:31 44° NE 20:39:31 44° NE 20:43:19 10° N
STARLINK-1202 3.8 20:36:25 10° WNW 20:40:22 62° SW 20:40:22 62° SW
Cosmos 468 Rocket 4.1 20:36:03 10° NNW 20:41:12 70° WSW 20:42:31 48° S
SL-4 R/B 2.9 20:43:24 10° WNW 20:46:33 36° N 20:46:33 36° N
ERS-1 Rocket 2.9 20:47:01 62° E 20:47:24 65° ENE 20:52:24 10° N
Cosmos 1408 3.3 20:44:09 10° N 20:46:55 49° N 20:46:55 49° N
STARLINK-1246 4.2 20:46:23 10° WNW 20:49:54 50° WSW 20:49:54 50° WSW
RESURS DK-1 2.5 20:46:31 10° NNW 20:50:15 68° N 20:50:15 68° N
Cosmos 1766 Rocket 3.9 20:49:00 10° N 20:52:50 54° NE 20:52:50 54° NE
BREEZE M DEB (TANK) 3.1 20:47:28 10° W 20:53:25 67° NW 20:53:25 67° NW
Cosmos 1570 Rocket 3.9 20:48:32 10° NNW 20:53:56 86° ENE 20:54:32 71° SSE
Okean 3 Rocket 3.7 20:50:33 10° N 20:54:34 67° NNE 20:54:34 67° NNE
STARLINK-1224 4.4 20:51:24 10° WNW 20:54:43 44° WSW 20:54:43 44° WSW
Cosmos 2058 4.0 20:52:51 10° NNW 20:56:41 38° W 20:57:24 35° WSW
Resurs 01 Rocket 3.5 20:55:17 17° SW 20:57:27 25° W 21:01:07 10° NW
COSMOS 2406 3.1 20:54:52 34° SSW 20:57:31 89° ESE 21:03:16 10° NNE
CZ-4C R/B 3.2 20:52:22 10° NW 20:59:14 55° NE 21:01:49 40° E
CZ-2C R/B 4.3 20:59:52 10° N 21:04:22 31° WNW 21:08:52 10° SW
Cosmos 2151 3.4 21:04:00 10° NNW 21:07:34 59° NW 21:07:34 59° NW
Cosmos 1697 Rocket 2.5 21:08:32 10° NNW 21:14:15 89° ENE 21:14:29 83° SSE
Cosmos 2369 3.5 21:08:41 10° NNW 21:14:22 88° ENE 21:14:33 84° SE
Cosmos 1455 4.0 21:31:25 30° NW 21:31:25 30° NW 21:34:02 10° N
SPOT 1/Viking Rocket 4.4 21:30:44 41° WSW 21:31:12 42° W 21:36:11 10° NNW
Cosmos 540 Rocket 3.9 21:29:44 10° NNW 21:34:20 56° W 21:34:20 56° W
SL-16 R/B 3.5 21:31:09 10° N 21:36:03 29° NE 21:36:11 29° NE
Cosmos 2360 Rocket 4.3 21:32:47 10° N 21:36:13 16° NE 21:37:32 15° NE
Cosmos 1825 4.3 21:38:27 10° NNW 21:40:28 25° NW 21:40:28 25° NW
Nadezhda 3 Rocket 4.3 21:41:26 53° SW 21:42:37 63° WNW 21:48:51 10° N
Cosmos 2322 Rocket 3.6 21:38:12 10° N 21:42:59 27° NE 21:43:04 27° NE
USA 234 3.2 21:36:56 10° NE 21:43:30 81° NNW 21:50:03 10° WSW
Cosmos 1980 Rocket 2.3 21:38:48 10° NNW 21:43:48 70° NNW 21:43:48 70° NNW
Cosmos 1535 Rocket 4.4 21:40:56 10° N 21:46:59 85° NW 21:46:59 85° NW
ASTEX 1 4.1 21:50:00 51° NNW 21:50:00 51° NNW 21:53:43 10° N
Meteor 2-3 Rocket 4.0 21:50:12 10° NNW 21:55:21 63° WNW 21:55:21 63° WNW
ATLAS CENTAUR R/B 3.9 21:57:19 10° NW 21:58:21 17° WNW 21:58:21 17° WNW
Mayak 0.9 22:03:21 10° N 22:04:58 23° N 22:04:58 23° N
Terra 3.3 22:08:45 32° WNW 22:08:45 32° WNW 22:12:00 10° NNW
Cosmos 1934 Rocket 4.3 22:05:36 10° NNW 22:11:27 57° W 22:11:27 57° W
Cosmos 2082 Rocket 2.8 22:15:56 54° NNW 22:15:56 54° NNW 22:20:38 10° NNE
Cosmos 1833 Rocket 3.9 22:20:38 35° WNW 22:21:41 38° NW 22:26:57 10° NNE
Cosmos 1605 Rocket 4.4 22:24:05 10° NNW 22:29:21 57° WNW 22:29:21 57° WNW
Cosmos 2219 Rocket 4.4 22:29:55 10° N 22:33:21 16° NE 22:34:42 15° NE
Cosmos 2344 4.4 22:26:31 10° NW 22:36:13 76° SW 22:38:35 62° S
CZ-4C R/B 3.5 22:40:59 10° NW 22:47:00 45° W 22:47:00 45° W
SL-16 R/B 3.6 23:14:57 10° NW 23:18:02 32° NW 23:18:02 32° NW
Cosmos 2360 Rocket 3.3 23:15:40 10° NNW 23:19:17 40° N 23:19:17 40° N
USA 234 4.3 23:20:01 10° NE 23:26:06 42° NNW 23:32:09 10° W
Cosmos 2322 Rocket 3.6 23:21:53 10° NNW 23:24:52 31° NW 23:24:52 31° NW
MOS 1-B Rocket 4.5 23:35:01 10° NNE 23:40:21 67° N 23:40:21 67° N
Cosmos 2333 Rocket 3.4 23:38:11 10° NNW 23:42:25 39° NNE 23:42:25 39° NNE
Cosmos 2237 Rocket 4.4 23:40:07 10° N 23:44:15 20° NE 23:46:25 16° ENE
SL-16 R/B 4.1 23:48:42 25° ENE 23:49:57 27° ENE 23:55:00 10° N
